Previsão horária em Aba

Hoje, 17 Abril, Sábado

Tempo Temperatura Precipitação Vento Pressão Humidade
00:00 +28°C° 0 mm 1 m/s 751 mmHg 82%
01:00 +27°C° 0 mm 1 m/s 750 mmHg 84%
02:00 +27°C° 0 mm 1 m/s 750 mmHg 85%
03:00 +27°C° 0 mm 1 m/s 750 mmHg 86%
04:00 +27°C° 0 mm 1 m/s 751 mmHg 86%
05:00 +27°C° 0 mm 1 m/s 751 mmHg 85%
06:00 +27°C° 0 mm 1 m/s 751 mmHg 85%
07:00 +28°C° 0 mm 1 m/s 752 mmHg 80%
08:00 +29°C° 0 mm 1 m/s 752 mmHg 74%
09:00 +30°C° 0 mm 1 m/s 752 mmHg 69%
10:00 +31°C° 0 mm 1 m/s 752 mmHg 63%
11:00 +34°C° 0 mm 2 m/s 751 mmHg 58%
12:00 +35°C° 0 mm 2 m/s 751 mmHg 53%
13:00 +35°C° 0 mm 2 m/s 750 mmHg 52%
14:00 +35°C° 0 mm 2 m/s 750 mmHg 51%
15:00 +36°C° 0 mm 2 m/s 749 mmHg 50%
16:00 +34°C° 0.1 mm 2 m/s 749 mmHg 57%
17:00 +32°C° 0.1 mm 2 m/s 750 mmHg 64%
18:00 +30°C° 0.1 mm 2 m/s 750 mmHg 71%
19:00 +29°C° 0.9 mm 2 m/s 751 mmHg 74%
20:00 +29°C° 0.9 mm 2 m/s 752 mmHg 78%
21:00 +28°C° 0.9 mm 2 m/s 753 mmHg 82%
22:00 +28°C° 0.2 mm 2 m/s 752 mmHg 82%
23:00 +28°C° 0.2 mm 2 m/s 752 mmHg 83%

Amanhã, 18 Abril, Domingo

Tempo Temperatura Precipitação Vento Pressão Humidade
00:00 +28°C° 0.2 mm 2 m/s 752 mmHg 83%
01:00 +28°C° 0 mm 1 m/s 751 mmHg 84%
02:00 +27°C° 0 mm 1 m/s 751 mmHg 85%
03:00 +27°C° 0 mm 1 m/s 751 mmHg 86%
04:00 +27°C° 0 mm 1 m/s 752 mmHg 87%
05:00 +27°C° 0 mm 1 m/s 752 mmHg 87%
06:00 +27°C° 0 mm 1 m/s 753 mmHg 87%
07:00 +28°C° 0.1 mm 1 m/s 753 mmHg 86%
08:00 +28°C° 0.1 mm 1 m/s 753 mmHg 86%
09:00 +28°C° 0.1 mm 1 m/s 754 mmHg 85%
10:00 +28°C° 0 mm 1 m/s 753 mmHg 81%
11:00 +29°C° 0 mm 1 m/s 753 mmHg 78%
12:00 +29°C° 0 mm 1 m/s 752 mmHg 75%
13:00 +29°C° 0 mm 1 m/s 752 mmHg 74%
14:00 +30°C° 0 mm 1 m/s 751 mmHg 73%
15:00 +28°C° 0 mm 0 m/s 751 mmHg 72%
16:00 +29°C° 0 mm 1 m/s 751 mmHg 74%
17:00 +29°C° 0 mm 1 m/s 751 mmHg 76%
18:00 +28°C° 0 mm 1 m/s 751 mmHg 78%
19:00 +28°C° 0 mm 1 m/s 751 mmHg 80%
20:00 +28°C° 0 mm 1 m/s 752 mmHg 81%
21:00 +27°C° 0 mm 1 m/s 752 mmHg 83%
22:00 +27°C° 0 mm 1 m/s 752 mmHg 85%
23:00 +27°C° 0 mm 1 m/s 752 mmHg 87%

Depois de amanhã, 19 Abril, Segunda-feira

Tempo Temperatura Precipitação Vento Pressão Humidade
00:00 +26°C° 0 mm 1 m/s 752 mmHg 89%
01:00 +26°C° 0 mm 1 m/s 752 mmHg 90%
02:00 +26°C° 0 mm 1 m/s 751 mmHg 91%
03:00 +26°C° 0 mm 1 m/s 751 mmHg 92%
04:00 +26°C° 0 mm 1 m/s 752 mmHg 91%
05:00 +27°C° 0 mm 1 m/s 752 mmHg 91%
06:00 +27°C° 0 mm 1 m/s 752 mmHg 90%
07:00 +29°C° 0 mm 2 m/s 752 mmHg 82%
08:00 +30°C° 0 mm 2 m/s 753 mmHg 73%
09:00 +33°C° 0 mm 3 m/s 753 mmHg 65%
10:00 +34°C° 0.1 mm 3 m/s 753 mmHg 63%
11:00 +34°C° 0.1 mm 3 m/s 752 mmHg 61%
12:00 +34°C° 0.1 mm 3 m/s 752 mmHg 58%
13:00 +34°C° 0.4 mm 3 m/s 751 mmHg 59%
14:00 +34°C° 0.4 mm 3 m/s 751 mmHg 59%
15:00 +34°C° 0.4 mm 2 m/s 750 mmHg 59%
16:00 +33°C° 0 mm 3 m/s 750 mmHg 64%
17:00 +31°C° 0 mm 3 m/s 751 mmHg 69%
18:00 +30°C° 0 mm 3 m/s 751 mmHg 74%
19:00 +29°C° 0 mm 2 m/s 751 mmHg 77%
20:00 +28°C° 0 mm 2 m/s 752 mmHg 79%
21:00 +28°C° 0 mm 2 m/s 752 mmHg 82%
22:00 +28°C° 0 mm 1 m/s 752 mmHg 83%
23:00 +27°C° 0 mm 1 m/s 752 mmHg 84%

20 Abril, Terça-feira

Tempo Temperatura Precipitação Vento Pressão Humidade
00:00 +27°C° 0 mm 1 m/s 752 mmHg 86%
01:00 +27°C° 0 mm 1 m/s 751 mmHg 87%
02:00 +27°C° 0 mm 1 m/s 751 mmHg 89%
03:00 +27°C° 0 mm 1 m/s 751 mmHg 90%
04:00 +27°C° 0 mm 1 m/s 751 mmHg 89%
05:00 +27°C° 0 mm 1 m/s 752 mmHg 89%
06:00 +27°C° 0 mm 1 m/s 752 mmHg 88%
07:00 +29°C° 0 mm 1 m/s 752 mmHg 80%
08:00 +31°C° 0 mm 2 m/s 753 mmHg 72%
09:00 +32°C° 0 mm 2 m/s 753 mmHg 64%
10:00 +34°C° 0.1 mm 2 m/s 752 mmHg 61%
11:00 +34°C° 0.1 mm 2 m/s 752 mmHg 58%
12:00 +35°C° 0.1 mm 2 m/s 751 mmHg 56%
13:00 +35°C° 0.1 mm 2 m/s 751 mmHg 56%
14:00 +35°C° 0.1 mm 2 m/s 750 mmHg 56%
15:00 +35°C° 0.1 mm 2 m/s 750 mmHg 56%
16:00 +34°C° 0 mm 2 m/s 750 mmHg 61%
17:00 +31°C° 0 mm 3 m/s 750 mmHg 67%
18:00 +30°C° 0 mm 3 m/s 750 mmHg 72%
19:00 +30°C° 0 mm 3 m/s 751 mmHg 75%
20:00 +29°C° 0 mm 2 m/s 751 mmHg 78%
21:00 +29°C° 0 mm 2 m/s 752 mmHg 81%
22:00 +28°C° 0 mm 2 m/s 752 mmHg 83%
23:00 +28°C° 0 mm 2 m/s 752 mmHg 85%

21 Abril, Quarta-feira

Tempo Temperatura Precipitação Vento Pressão Humidade
00:00 +28°C° 0 mm 1 m/s 751 mmHg 86%
01:00 +28°C° 0 mm 1 m/s 751 mmHg 87%
02:00 +27°C° 0 mm 1 m/s 751 mmHg 87%
03:00 +27°C° 0 mm 1 m/s 751 mmHg 88%
04:00 +27°C° 0 mm 1 m/s 751 mmHg 88%
05:00 +27°C° 0 mm 1 m/s 752 mmHg 88%
06:00 +27°C° 0 mm 1 m/s 752 mmHg 89%
07:00 +28°C° 0 mm 1 m/s 753 mmHg 83%
08:00 +30°C° 0 mm 1 m/s 753 mmHg 77%
09:00 +31°C° 0 mm 1 m/s 754 mmHg 71%
10:00 +32°C° 0 mm 1 m/s 753 mmHg 64%
11:00 +34°C° 0 mm 1 m/s 752 mmHg 56%
12:00 +36°C° 0 mm 1 m/s 751 mmHg 49%
13:00 +37°C° 0 mm 2 m/s 751 mmHg 49%
14:00 +37°C° 0 mm 2 m/s 750 mmHg 49%
15:00 +37°C° 0 mm 2 m/s 749 mmHg 49%
16:00 +35°C° 0.2 mm 3 m/s 750 mmHg 56%
17:00 +33°C° 0.2 mm 3 m/s 750 mmHg 64%
18:00 +32°C° 0.2 mm 4 m/s 750 mmHg 72%
19:00 +30°C° 0.6 mm 3 m/s 751 mmHg 76%
20:00 +29°C° 0.6 mm 3 m/s 751 mmHg 79%
21:00 +29°C° 0.6 mm 2 m/s 752 mmHg 83%
22:00 +28°C° 0 mm 2 m/s 752 mmHg 84%
23:00 +28°C° 0 mm 2 m/s 752 mmHg 85%

22 Abril, Quinta-feira

Tempo Temperatura Precipitação Vento Pressão Humidade
00:00 +28°C° 0 mm 1 m/s 752 mmHg 86%
01:00 +28°C° 0 mm 1 m/s 751 mmHg 87%
02:00 +28°C° 0 mm 1 m/s 751 mmHg 89%
03:00 +27°C° 0 mm 1 m/s 751 mmHg 90%
04:00 +27°C° 0 mm 1 m/s 751 mmHg 89%
05:00 +28°C° 0 mm 1 m/s 752 mmHg 89%
06:00 +28°C° 0 mm 1 m/s 752 mmHg 89%
07:00 +29°C° 0 mm 1 m/s 752 mmHg 81%
08:00 +31°C° 0 mm 1 m/s 753 mmHg 73%
09:00 +32°C° 0 mm 2 m/s 753 mmHg 65%
10:00 +35°C° 0 mm 2 m/s 752 mmHg 60%
11:00 +36°C° 0 mm 3 m/s 752 mmHg 55%
12:00 +37°C° 0 mm 3 m/s 751 mmHg 50%
13:00 +36°C° 0 mm 3 m/s 750 mmHg 53%
14:00 +35°C° 0 mm 3 m/s 750 mmHg 56%
15:00 +35°C° 0 mm 4 m/s 749 mmHg 59%
16:00 +33°C° 0.7 mm 4 m/s 749 mmHg 64%
17:00 +32°C° 0.7 mm 4 m/s 750 mmHg 70%
18:00 +30°C° 0.7 mm 5 m/s 750 mmHg 76%
19:00 +29°C° 0.1 mm 4 m/s 750 mmHg 79%
20:00 +29°C° 0.1 mm 3 m/s 751 mmHg 81%
21:00 +28°C° 0.1 mm 3 m/s 751 mmHg 84%
22:00 +28°C° 0.3 mm 2 m/s 751 mmHg 86%
23:00 +28°C° 0.3 mm 2 m/s 751 mmHg 88%
Mostrar mais